TimeCDT,TemperatureF,Dew PointF,Humidity,Sea Level PressureIn,VisibilityMPH,Wind Direction,Wind SpeedMPH,Gust SpeedMPH,PrecipitationIn,Events,Conditions,WindDirDegrees,DateUTC
12:15 AM,48.2,46.4,93,30.10,5.0,NW,13.8,18.4,0.01,,Overcast,310,2013-10-19 05:15:00
12:35 AM,46.4,44.6,93,30.10,3.0,NW,13.8,-,0.01,,Overcast,310,2013-10-19 05:35:00
12:55 AM,46.4,44.6,93,30.10,7.0,NW,9.2,-,0.01,,Overcast,310,2013-10-19 05:55:00
1:15 AM,46.4,44.6,93,30.11,10.0,NW,11.5,19.6,N/A,,Overcast,320,2013-10-19 06:15:00
1:35 AM,44.6,42.8,93,30.11,10.0,NNW,12.7,18.4,N/A,,Overcast,330,2013-10-19 06:35:00
1:55 AM,44.6,42.8,93,30.11,10.0,NW,10.4,18.4,N/A,,Overcast,320,2013-10-19 06:55:00
2:15 AM,44.6,41.0,87,30.12,10.0,NNW,8.1,-,N/A,,Overcast,330,2013-10-19 07:15:00
2:35 AM,44.6,41.0,87,30.12,10.0,NW,8.1,-,N/A,,Overcast,320,2013-10-19 07:35:00
2:55 AM,44.6,41.0,87,30.12,10.0,NW,10.4,-,N/A,,Overcast,320,2013-10-19 07:55:00
3:15 AM,44.6,41.0,87,30.12,10.0,NW,10.4,-,N/A,,Overcast,320,2013-10-19 08:15:00
3:35 AM,44.6,41.0,87,30.13,10.0,NW,8.1,-,N/A,,Overcast,310,2013-10-19 08:35:00
3:55 AM,42.8,39.2,87,30.13,10.0,NNW,9.2,-,N/A,,Mostly Cloudy,330,2013-10-19 08:55:00
4:15 AM,42.8,41.0,93,30.13,10.0,NW,5.8,-,N/A,,Mostly Cloudy,320,2013-10-19 09:15:00
4:35 AM,42.8,39.2,87,30.13,10.0,NW,11.5,16.1,N/A,,Overcast,310,2013-10-19 09:35:00
4:55 AM,42.8,39.2,87,30.12,10.0,NW,8.1,-,N/A,,Overcast,320,2013-10-19 09:55:00
5:15 AM,42.8,37.4,81,30.12,10.0,NW,10.4,-,N/A,,Overcast,310,2013-10-19 10:15:00
5:35 AM,42.8,37.4,81,30.13,10.0,NW,9.2,-,N/A,,Overcast,310,2013-10-19 10:35:00
5:55 AM,42.8,37.4,81,30.14,10.0,NW,11.5,-,N/A,,Overcast,320,2013-10-19 10:55:00
6:15 AM,41.0,35.6,81,30.14,10.0,NNW,9.2,-,N/A,,Overcast,330,2013-10-19 11:15:00
6:35 AM,41.0,35.6,81,30.15,10.0,NW,8.1,-,N/A,,Overcast,310,2013-10-19 11:35:00
6:55 AM,41.0,35.6,81,30.15,10.0,WNW,5.8,-,N/A,,Overcast,290,2013-10-19 11:55:00
7:15 AM,41.0,35.6,81,30.16,10.0,West,5.8,-,N/A,,Overcast,280,2013-10-19 12:15:00
7:35 AM,41.0,35.6,81,30.16,10.0,WNW,5.8,-,N/A,,Mostly Cloudy,290,2013-10-19 12:35:00
7:55 AM,41.0,35.6,81,30.16,10.0,WNW,5.8,-,N/A,,Overcast,300,2013-10-19 12:55:00
8:15 AM,41.0,35.6,81,30.16,10.0,NW,5.8,-,N/A,,Overcast,310,2013-10-19 13:15:00
8:35 AM,41.0,35.6,81,30.17,10.0,WNW,4.6,-,N/A,,Overcast,300,2013-10-19 13:35:00
8:55 AM,41.0,35.6,81,30.18,10.0,WNW,5.8,-,N/A,,Overcast,300,2013-10-19 13:55:00
9:15 AM,42.8,35.6,76,30.19,10.0,WNW,5.8,-,N/A,,Overcast,290,2013-10-19 14:15:00
9:35 AM,42.8,35.6,76,30.19,10.0,West,4.6,-,N/A,,Overcast,270,2013-10-19 14:35:00
9:55 AM,42.8,37.4,81,30.20,10.0,NNW,5.8,-,N/A,,Mostly Cloudy,330,2013-10-19 14:55:00
10:15 AM,42.8,35.6,76,30.20,10.0,West,4.6,-,N/A,,Mostly Cloudy,280,2013-10-19 15:15:00
10:35 AM,44.6,37.4,76,30.20,10.0,West,6.9,-,N/A,,Mostly Cloudy,260,2013-10-19 15:35:00
10:55 AM,46.4,37.4,71,30.20,10.0,NW,4.6,-,N/A,,Scattered Clouds,310,2013-10-19 15:55:00
11:15 AM,46.4,37.4,71,30.19,10.0,Calm,Calm,-,N/A,,Scattered Clouds,0,2013-10-19 16:15:00
11:35 AM,48.2,37.4,66,30.18,10.0,WNW,4.6,-,N/A,,Clear,290,2013-10-19 16:35:00
11:55 AM,50.0,37.4,62,30.18,10.0,WNW,3.5,-,N/A,,Clear,290,2013-10-19 16:55:00
1:15 PM,53.6,37.4,54,30.16,10.0,WNW,3.5,-,N/A,,Clear,290,2013-10-19 18:15:00
1:55 PM,55.4,37.4,51,30.14,10.0,Calm,Calm,-,N/A,,Clear,0,2013-10-19 18:55:00
2:15 PM,55.4,37.4,51,30.13,10.0,WNW,6.9,-,N/A,,Clear,290,2013-10-19 19:15:00
2:35 PM,57.2,37.4,48,30.12,10.0,SSW,4.6,-,N/A,,Clear,210,2013-10-19 19:35:00
2:55 PM,57.2,37.4,48,30.11,10.0,Calm,Calm,-,N/A,,Clear,0,2013-10-19 19:55:00
3:15 PM,59.0,37.4,45,30.11,10.0,Calm,Calm,-,N/A,,Clear,0,2013-10-19 20:15:00
3:35 PM,59.0,37.4,45,30.11,10.0,SW,4.6,-,N/A,,Clear,220,2013-10-19 20:35:00
3:55 PM,59.0,35.6,42,30.10,10.0,Calm,Calm,-,N/A,,Clear,0,2013-10-19 20:55:00
4:15 PM,59.0,35.6,42,30.10,10.0,SSW,4.6,-,N/A,,Clear,210,2013-10-19 21:15:00
4:35 PM,60.8,35.6,39,30.09,10.0,Calm,Calm,-,N/A,,Clear,0,2013-10-19 21:35:00
4:55 PM,60.8,35.6,39,30.09,10.0,WSW,4.6,-,N/A,,Clear,240,2013-10-19 21:55:00
5:15 PM,60.8,35.6,39,30.08,10.0,SSW,3.5,-,N/A,,Clear,210,2013-10-19 22:15:00
5:35 PM,59.0,35.6,42,30.07,10.0,SW,5.8,-,N/A,,Clear,220,2013-10-19 22:35:00
5:55 PM,59.0,35.6,42,30.07,10.0,SW,4.6,-,N/A,,Clear,230,2013-10-19 22:55:00
6:15 PM,57.2,37.4,48,30.07,10.0,SW,3.5,-,N/A,,Clear,230,2013-10-19 23:15:00
6:35 PM,55.4,37.4,51,30.07,10.0,Calm,Calm,-,N/A,,Clear,0,2013-10-19 23:35:00
6:55 PM,53.6,41.0,62,30.06,10.0,South,3.5,-,N/A,,Clear,170,2013-10-19 23:55:00
7:15 PM,51.8,41.0,67,30.07,10.0,Calm,Calm,-,N/A,,Clear,0,2013-10-20 00:15:00
7:35 PM,50.0,41.0,71,30.07,10.0,Calm,Calm,-,N/A,,Clear,0,2013-10-20 00:35:00
7:55 PM,46.4,42.8,87,30.06,10.0,Calm,Calm,-,N/A,,Clear,0,2013-10-20 00:55:00
8:15 PM,46.4,42.8,87,30.07,10.0,Calm,Calm,-,N/A,,Clear,0,2013-10-20 01:15:00
8:35 PM,46.4,42.8,87,30.07,10.0,Calm,Calm,-,N/A,,Clear,0,2013-10-20 01:35:00
8:55 PM,44.6,41.0,87,30.07,10.0,Calm,Calm,-,N/A,,Clear,0,2013-10-20 01:55:00
9:15 PM,44.6,42.8,93,30.07,10.0,Calm,Calm,-,N/A,,Clear,0,2013-10-20 02:15:00
9:35 PM,44.6,42.8,93,30.07,10.0,Calm,Calm,-,N/A,,Clear,0,2013-10-20 02:35:00
9:55 PM,44.6,42.8,93,30.07,10.0,Calm,Calm,-,N/A,,Clear,0,2013-10-20 02:55:00
10:15 PM,42.8,42.8,100,30.07,10.0,Calm,Calm,-,N/A,,Clear,0,2013-10-20 03:15:00
10:35 PM,42.8,42.8,100,30.07,10.0,Calm,Calm,-,N/A,,Clear,0,2013-10-20 03:35:00
10:55 PM,42.8,41.0,93,30.07,10.0,NE,3.5,-,N/A,,Clear,50,2013-10-20 03:55:00
11:15 PM,42.8,41.0,93,30.06,10.0,Calm,Calm,-,N/A,,Clear,0,2013-10-20 04:15:00
11:35 PM,42.8,41.0,93,30.06,10.0,NE,4.6,-,N/A,,Clear,40,2013-10-20 04:35:00
11:55 PM,42.8,39.2,87,30.06,10.0,ENE,3.5,-,N/A,,Clear,60,2013-10-20 04:55:00